Home > Weather > Lappeenranta > Past weeks

Flag for Finland Past Weather in Lappeenranta, Finland — Yesterday and Last 2 Weeks

Now
72 °F

Passing clouds.


Feels Like: 75 °F
Forecast: 62 / 74 °F
Wind: 10 mph from West

Location: Lappeenranta

Current Time: Jun 25, 2016 at 7:02:29 PM

Latest Report: Jun 25, 2016 at 6:20 PM


Visibility: N/A

Pressure: 29.98 "Hg

Humidity: 69%

Dew Point: 61 °F

Location of LappeenrantaLocation

Past Weather in Lappeenranta — Graph

°F

Lappeenranta Temperature Yesterday

Maximum temperature yesterday: 75 °F (at 4:50 PM)
Minimum temperature yesterday: 57 °F (at 12:20 AM)
Average temperature yesterday: 64 °F

High & Low Weather Summary for the Past Weeks

 TemperatureHumidityPressure
High75 °F (Jun 21, 1:50 PM)100% (Jun 10, 11:50 PM)30.21 "Hg (Jun 10, 11:50 PM)
Low37 °F (Jun 11, 12:50 AM)25% (Jun 15, 5:50 PM)29.42 "Hg (Jun 18, 7:50 AM)
Average60 °F73%29.85 "Hg
* Reported Jun 10 6:20 PM — Jun 25 6:20 PM, Lappeenranta, Weather by CustomWeather, © 2016

Note: Actual official high and low records may vary slightly from our data, if they occured in-between our weather recording intervals... More about our weather records

Advertising

Lappeenranta Weather History for the Previous 24 Hours

Scroll right to see more
 ConditionsComfort  
Time TempWeatherWind HumidityBarometerVisibility
6:20 PM
Sat, Jun 25
72 °FPassing clouds.10 mph69%29.98 "HgN/A
5:20 PM70 °FPartly sunny.8 mph78%29.98 "HgN/A
4:50 PM68 °FPartly sunny.9 mph78%29.98 "HgN/A
4:20 PM70 °FPartly sunny.7 mph73%29.98 "HgN/A
3:50 PM68 °FPartly sunny.8 mph78%29.98 "HgN/A
3:20 PM68 °FPartly sunny.8 mph83%29.98 "HgN/A
2:50 PM70 °FBroken clouds.8 mph73%29.98 "HgN/A
2:20 PM68 °FBroken clouds.8 mph83%29.98 "HgN/A
1:50 PM68 °FPartly sunny.6 mph83%29.98 "HgN/A
1:20 PM68 °FPartly sunny.5 mph78%29.98 "HgN/A
12:50 PM68 °FPartly sunny.5 mph78%29.98 "HgN/A
12:20 PM66 °FBroken clouds.5 mph88%29.98 "HgN/A
11:50 AM66 °FPartly sunny.5 mph88%29.98 "HgN/A
11:20 AM64 °FPartly sunny.5 mph94%29.98 "Hg6 mi
10:50 AM63 °FPartly sunny.1 mph100%29.98 "Hg3 mi
10:20 AM61 °FFog.1 mph100%29.98 "Hg2 mi
9:50 AM61 °FFog.2 mph100%29.98 "Hg2 mi
9:20 AM61 °FFog.1 mph100%29.98 "Hg1 mi
8:50 AM59 °FFog.2 mph100%29.98 "Hg1 mi
8:20 AM59 °FFog.2 mph100%29.98 "Hg0 mi
7:50 AM59 °FFog.3 mph100%29.98 "Hg0 mi
7:20 AM59 °FFog.3 mph100%29.98 "Hg0 mi
6:50 AM59 °FFog.2 mph100%29.98 "Hg0 mi
6:20 AM59 °FFog.2 mph100%29.98 "Hg0 mi
5:50 AM59 °FFog.2 mph100%29.98 "Hg2 mi
5:20 AM59 °FLow clouds.2 mph94%29.98 "Hg4 mi
4:50 AM59 °FMostly cloudy.3 mph94%29.98 "Hg6 mi
4:20 AM59 °FMostly cloudy.2 mph94%29.98 "Hg6 mi
3:50 AM59 °FLow clouds.2 mph94%30.01 "Hg5 mi
3:20 AM59 °FLow clouds.3 mph94%30.01 "Hg6 mi
2:50 AM59 °FPassing clouds.2 mph94%30.01 "HgN/A
2:20 AM59 °FPassing clouds.2 mph94%30.01 "HgN/A
1:50 AM59 °FPartly cloudy.2 mph100%30.01 "HgN/A
1:20 AM59 °FLow clouds.2 mph94%30.01 "HgN/A
12:50 AM59 °FPassing clouds.1 mph94%30.04 "HgN/A
12:20 AM59 °FPassing clouds.2 mph94%30.04 "HgN/A
11:50 PM
Fri, Jun 24
61 °FPassing clouds.2 mph88%30.04 "HgN/A
11:20 PM61 °FPassing clouds.5 mph88%30.04 "HgN/A
10:50 PM61 °FSprinkles. Overcast.5 mph88%30.04 "HgN/A
10:20 PM61 °FPassing clouds.5 mph88%30.04 "HgN/A
9:50 PM61 °FSunny.3 mph88%30.04 "Hg10 mi
9:20 PM63 °FPassing clouds.6 mph83%30.07 "HgN/A
8:50 PM63 °FPassing clouds.7 mph77%30.07 "HgN/A
8:20 PM63 °FSunny.10 mph77%30.07 "Hg10 mi
7:50 PM64 °FPassing clouds.10 mph73%30.07 "HgN/A
7:20 PM66 °FPassing clouds.13 mph68%30.07 "HgN/A
Weather by CustomWeather, © 2016

See weather overviewHow to use our weather pages